TDRS 6

Last updated on Sun Apr 12 2026 00:02:44 GMT+0000 (Coordinated Universal Time)

1 22314U 93003B 26101.12407174 -.00000289 00000+0 00000+0 0 9991 2 22314 14.1823 357.5584 0005489 188.2511 12.2313 1.00279225121736
UTC large
Height (km)
Speed (km/s)
/
Latitude / Longitude
Inclination (degrees)
Orbital Period (minutes)
Azimuth
Elevation
Range (km)
Doppler Factor

Next 0 passes for location: London (51.5072 / 0.1276)

Sorry there are no passes over London.
TDRS 6